NOK1123 VTUU-VTBD

Flight info

Callsign NOK1123
Flight time 0h 46m
Altitude 32000
Route ASABO1A ASABO Y20 UBLOD ENDUU3A
Aircraft B738/M-SDE2E3FGHIRWXY/LB1

Departure

Time 2026-05-07 10:46
Airport Ubon Ratchathani Airport (VTUU)

Arrival

Time 2026-05-07 11:32
Airport Don Mueang International Airport (VTBD)
Time Latitude Longitude Altitude Speed Heading
2026-05-07 10:26 15.24727 104.86975 415 ft 0 kts 141°
2026-05-07 10:35 15.24728 104.86974 415 ft 1 kts 141°
2026-05-07 10:36 15.24740 104.86964 415 ft 2 kts 141°
2026-05-07 10:36 15.24752 104.86955 414 ft 2 kts 141°
2026-05-07 10:36 15.24765 104.86944 414 ft 2 kts 141°
2026-05-07 10:36 15.24771 104.86931 414 ft 2 kts 81°
2026-05-07 10:37 15.24764 104.86917 414 ft 2 kts 42°
2026-05-07 10:37 15.24754 104.86906 414 ft 1 kts 54°
2026-05-07 10:37 15.24752 104.86903 414 ft 0 kts 53°
2026-05-07 10:39 15.24763 104.86918 414 ft 5 kts 52°
2026-05-07 10:39 15.24786 104.86948 413 ft 5 kts 52°
2026-05-07 10:39 15.24814 104.86984 412 ft 6 kts 52°
2026-05-07 10:40 15.24856 104.87007 410 ft 7 kts 354°
2026-05-07 10:40 15.24902 104.86979 408 ft 8 kts 321°
2026-05-07 10:40 15.24952 104.86937 407 ft 9 kts 321°
2026-05-07 10:40 15.25000 104.86900 406 ft 8 kts 339°
2026-05-07 10:41 15.25045 104.86912 407 ft 5 kts 33°
2026-05-07 10:41 15.25073 104.86951 406 ft 9 kts 54°
2026-05-07 10:41 15.25131 104.87028 405 ft 18 kts 51°
2026-05-07 10:41 15.25221 104.87144 404 ft 20 kts 51°
2026-05-07 10:42 15.25313 104.87264 402 ft 22 kts 51°
2026-05-07 10:42 15.25412 104.87391 400 ft 21 kts 51°
2026-05-07 10:42 15.25506 104.87513 400 ft 20 kts 51°
2026-05-07 10:42 15.25592 104.87626 400 ft 19 kts 51°
2026-05-07 10:43 15.25674 104.87730 401 ft 18 kts 51°
2026-05-07 10:43 15.25761 104.87843 402 ft 20 kts 51°
2026-05-07 10:43 15.25842 104.87950 404 ft 17 kts 52°
2026-05-07 10:43 15.25891 104.88055 406 ft 14 kts 74°
2026-05-07 10:44 15.25944 104.88115 406 ft 10 kts 340°
2026-05-07 10:44 15.25948 104.88082 406 ft 3 kts 231°
2026-05-07 10:44 15.25941 104.88073 406 ft 0 kts 229°
2026-05-07 10:45 15.25927 104.88057 406 ft 16 kts 231°
2026-05-07 10:45 15.25672 104.87727 401 ft 98 kts 231°
2026-05-07 10:45 15.25084 104.86967 407 ft 166 kts 231°
2026-05-07 10:45 15.24280 104.85916 784 ft 193 kts 232°
2026-05-07 10:46 15.23459 104.84806 1737 ft 193 kts 231°
2026-05-07 10:46 15.22620 104.83695 2390 ft 204 kts 231°
2026-05-07 10:46 15.21688 104.82504 2905 ft 221 kts 230°
2026-05-07 10:46 15.20667 104.81207 3449 ft 238 kts 230°
2026-05-07 10:47 15.19585 104.79820 4019 ft 255 kts 231°
2026-05-07 10:47 15.18459 104.78368 4812 ft 261 kts 231°
2026-05-07 10:47 15.17335 104.76918 5773 ft 261 kts 231°
2026-05-07 10:47 15.16183 104.75433 6599 ft 266 kts 231°
2026-05-07 10:48 15.15012 104.73925 7425 ft 270 kts 231°
2026-05-07 10:48 15.13824 104.72394 8251 ft 274 kts 230°
2026-05-07 10:48 15.12599 104.70818 9083 ft 278 kts 231°
2026-05-07 10:48 15.11517 104.69154 9868 ft 283 kts 244°
2026-05-07 10:49 15.11018 104.67195 10613 ft 288 kts 270°
2026-05-07 10:49 15.11338 104.65102 11122 ft 301 kts 287°
2026-05-07 10:49 15.11990 104.62994 11595 ft 316 kts 289°
2026-05-07 10:49 15.12717 104.60767 12079 ft 331 kts 289°
2026-05-07 10:50 15.13439 104.58472 12610 ft 343 kts 288°
2026-05-07 10:50 15.14156 104.56099 13378 ft 346 kts 288°
2026-05-07 10:50 15.14868 104.53681 14131 ft 349 kts 287°
2026-05-07 10:50 15.15578 104.51242 14855 ft 353 kts 287°
2026-05-07 10:51 15.16303 104.48748 15579 ft 357 kts 287°
2026-05-07 10:51 15.17038 104.46227 16272 ft 361 kts 287°
2026-05-07 10:51 15.17769 104.43714 16949 ft 365 kts 287°
2026-05-07 10:51 15.18498 104.41206 17625 ft 367 kts 287°
2026-05-07 10:52 15.19244 104.38615 18205 ft 373 kts 286°
2026-05-07 10:52 15.19826 104.35998 18841 ft 376 kts 280°
2026-05-07 10:52 15.20064 104.33294 19420 ft 380 kts 271°
2026-05-07 10:52 15.20000 104.30535 19964 ft 385 kts 267°
2026-05-07 10:53 15.19793 104.27724 20531 ft 388 kts 265°
2026-05-07 10:53 15.19530 104.24900 21065 ft 392 kts 264°
2026-05-07 10:53 15.19256 104.22078 21561 ft 396 kts 264°
2026-05-07 10:53 15.18981 104.19207 22061 ft 400 kts 265°
2026-05-07 10:54 15.18713 104.16316 22598 ft 403 kts 265°
2026-05-07 10:54 15.18448 104.13362 23110 ft 407 kts 265°
2026-05-07 10:54 15.18191 104.10437 23685 ft 408 kts 265°
2026-05-07 10:54 15.17936 104.07494 24105 ft 413 kts 265°
2026-05-07 10:55 15.17684 104.04565 24692 ft 412 kts 265°
2026-05-07 10:55 15.17427 104.01559 25128 ft 417 kts 265°
2026-05-07 10:55 15.17171 103.98573 25662 ft 417 kts 265°
2026-05-07 10:55 15.16915 103.95583 26094 ft 420 kts 265°
2026-05-07 10:56 15.16656 103.92557 26568 ft 422 kts 265°
2026-05-07 10:56 15.16396 103.89516 26983 ft 425 kts 265°
2026-05-07 10:56 15.16135 103.86476 27458 ft 426 kts 265°
2026-05-07 10:56 15.15871 103.83418 27880 ft 429 kts 265°
2026-05-07 10:57 15.15606 103.80347 28282 ft 431 kts 265°
2026-05-07 10:57 15.15325 103.77274 28673 ft 433 kts 264°
2026-05-07 10:57 15.14953 103.74168 29133 ft 434 kts 263°
2026-05-07 10:57 15.14521 103.71081 29527 ft 436 kts 262°
2026-05-07 10:58 15.14063 103.67990 29950 ft 437 kts 262°
2026-05-07 10:58 15.13589 103.64838 30362 ft 439 kts 262°
2026-05-07 10:58 15.13124 103.61720 30728 ft 441 kts 262°
2026-05-07 10:58 15.12664 103.58590 31113 ft 442 kts 262°
2026-05-07 10:59 15.12205 103.55430 31479 ft 444 kts 263°
2026-05-07 10:59 15.11747 103.52247 31743 ft 447 kts 263°
2026-05-07 10:59 15.10827 103.45795 31770 ft 462 kts 263°
2026-05-07 11:00 15.09879 103.39118 31769 ft 477 kts 263°
2026-05-07 11:00 15.08905 103.32269 31766 ft 488 kts 262°
2026-05-07 11:01 15.07909 103.25300 31768 ft 487 kts 262°
2026-05-07 11:01 15.06919 103.18393 31775 ft 486 kts 262°
2026-05-07 11:02 15.05928 103.11482 31779 ft 486 kts 262°
2026-05-07 11:02 15.04936 103.04569 31779 ft 486 kts 262°
2026-05-07 11:03 15.03942 102.97654 31778 ft 487 kts 262°
2026-05-07 11:03 15.02944 102.90741 31780 ft 487 kts 262°
2026-05-07 11:04 15.01940 102.83803 31779 ft 486 kts 262°
2026-05-07 11:04 15.00940 102.76901 31782 ft 486 kts 263°
2026-05-07 11:05 14.99942 102.70029 31783 ft 486 kts 263°
2026-05-07 11:05 14.98928 102.63059 31788 ft 488 kts 262°
2026-05-07 11:06 14.97918 102.56141 31794 ft 488 kts 263°
2026-05-07 11:06 14.96897 102.49159 31796 ft 488 kts 263°
2026-05-07 11:07 14.95882 102.42226 31797 ft 488 kts 263°
2026-05-07 11:07 14.94868 102.35310 31797 ft 488 kts 263°
2026-05-07 11:08 14.93848 102.28376 31799 ft 488 kts 262°
2026-05-07 11:08 14.92818 102.21416 31800 ft 488 kts 262°
2026-05-07 11:09 14.91481 102.14526 31797 ft 490 kts 256°
2026-05-07 11:09 14.89247 102.07864 31793 ft 492 kts 249°
2026-05-07 11:10 14.86555 102.01337 31792 ft 493 kts 247°
2026-05-07 11:10 14.83770 101.94877 31790 ft 492 kts 247°
2026-05-07 11:11 14.80986 101.88393 31795 ft 492 kts 248°
2026-05-07 11:11 14.78251 101.81954 31798 ft 492 kts 248°
2026-05-07 11:12 14.75547 101.75563 31343 ft 472 kts 248°
2026-05-07 11:12 14.74247 101.72489 30847 ft 459 kts 248°
2026-05-07 11:12 14.72987 101.69508 30400 ft 446 kts 248°
2026-05-07 11:13 14.71770 101.66627 29752 ft 439 kts 248°
2026-05-07 11:13 14.70545 101.63723 28906 ft 437 kts 248°
2026-05-07 11:13 14.69335 101.60854 28140 ft 433 kts 248°
2026-05-07 11:13 14.68129 101.57997 27404 ft 429 kts 247°
2026-05-07 11:14 14.66952 101.55209 26714 ft 424 kts 247°
2026-05-07 11:14 14.65772 101.52415 25984 ft 421 kts 247°
2026-05-07 11:14 14.64614 101.49675 25290 ft 416 kts 247°
2026-05-07 11:14 14.63449 101.46922 24596 ft 412 kts 246°
2026-05-07 11:15 14.62306 101.44246 23852 ft 409 kts 245°
2026-05-07 11:15 14.61055 101.41651 23180 ft 405 kts 241°
2026-05-07 11:15 14.59647 101.39092 22511 ft 400 kts 239°
2026-05-07 11:15 14.58239 101.36680 21819 ft 397 kts 238°
2026-05-07 11:16 14.56797 101.34255 21241 ft 391 kts 237°
2026-05-07 11:16 14.55382 101.31874 20590 ft 388 kts 238°
2026-05-07 11:16 14.53991 101.29517 20011 ft 382 kts 238°
2026-05-07 11:16 14.52612 101.27165 19375 ft 379 kts 238°
2026-05-07 11:17 14.51283 101.24854 18803 ft 374 kts 240°
2026-05-07 11:17 14.50128 101.22473 18174 ft 370 kts 247°
2026-05-07 11:17 14.49338 101.19957 17569 ft 366 kts 256°
2026-05-07 11:17 14.48832 101.17418 16954 ft 362 kts 260°
2026-05-07 11:18 14.48444 101.14844 16265 ft 360 kts 262°
2026-05-07 11:18 14.48100 101.12285 15908 ft 349 kts 262°
2026-05-07 11:18 14.47770 101.09833 15526 ft 347 kts 262°
2026-05-07 11:18 14.47414 101.07310 15031 ft 355 kts 261°
2026-05-07 11:19 14.47044 101.04777 14497 ft 356 kts 261°
2026-05-07 11:19 14.46667 101.02255 13983 ft 351 kts 261°
2026-05-07 11:19 14.46291 100.99759 13441 ft 353 kts 261°
2026-05-07 11:19 14.45911 100.97258 12937 ft 353 kts 261°
2026-05-07 11:20 14.45530 100.94743 12431 ft 353 kts 261°
2026-05-07 11:20 14.45152 100.92257 12162 ft 344 kts 261°
2026-05-07 11:20 14.44789 100.89865 11953 ft 336 kts 261°
2026-05-07 11:20 14.44426 100.87479 11571 ft 334 kts 261°
2026-05-07 11:21 14.44066 100.85139 11133 ft 334 kts 261°
2026-05-07 11:21 14.43702 100.82772 10696 ft 333 kts 261°
2026-05-07 11:21 14.43340 100.80434 10247 ft 326 kts 261°
2026-05-07 11:21 14.42984 100.78138 9917 ft 315 kts 261°
2026-05-07 11:22 14.42648 100.75981 9748 ft 300 kts 261°
2026-05-07 11:22 14.42313 100.73846 9316 ft 296 kts 261°
2026-05-07 11:22 14.41981 100.71731 9003 ft 288 kts 261°
2026-05-07 11:22 14.41667 100.69701 8994 ft 283 kts 261°
2026-05-07 11:23 14.41357 100.67653 8844 ft 295 kts 261°
2026-05-07 11:23 14.40999 100.65537 8424 ft 301 kts 256°
2026-05-07 11:23 14.40278 100.63570 8204 ft 286 kts 236°
2026-05-07 11:23 14.38914 100.62200 8108 ft 266 kts 205°
2026-05-07 11:24 14.37173 100.61662 7840 ft 254 kts 181°
2026-05-07 11:24 14.35433 100.61743 7557 ft 249 kts 168°
2026-05-07 11:24 14.33720 100.62140 7267 ft 252 kts 162°
2026-05-07 11:24 14.31995 100.62660 6952 ft 253 kts 161°
2026-05-07 11:25 14.30308 100.63175 6654 ft 247 kts 161°
2026-05-07 11:25 14.28640 100.63665 6382 ft 242 kts 162°
2026-05-07 11:25 14.26969 100.64145 6110 ft 246 kts 162°
2026-05-07 11:25 14.25284 100.64628 5817 ft 248 kts 162°
2026-05-07 11:26 14.23629 100.65100 5611 ft 238 kts 162°
2026-05-07 11:26 14.22030 100.65556 5449 ft 235 kts 163°
2026-05-07 11:26 14.20413 100.66016 5235 ft 244 kts 163°
2026-05-07 11:26 14.18737 100.66492 4942 ft 250 kts 163°
2026-05-07 11:27 14.17060 100.66966 4815 ft 241 kts 163°
2026-05-07 11:27 14.15453 100.67420 4813 ft 237 kts 163°
2026-05-07 11:27 14.13825 100.67886 4829 ft 243 kts 163°
2026-05-07 11:27 14.12189 100.68353 4808 ft 243 kts 163°
2026-05-07 11:28 14.10536 100.68823 4512 ft 244 kts 163°
2026-05-07 11:28 14.08843 100.69304 4011 ft 248 kts 164°
2026-05-07 11:28 14.07115 100.69580 3405 ft 247 kts 186°
2026-05-07 11:28 14.05543 100.69042 2882 ft 232 kts 216°
2026-05-07 11:29 14.04339 100.68028 2557 ft 210 kts 217°
2026-05-07 11:29 14.03152 100.67212 2308 ft 190 kts 210°
2026-05-07 11:29 14.02025 100.66539 2062 ft 173 kts 209°
2026-05-07 11:29 14.00984 100.65932 1792 ft 158 kts 208°
2026-05-07 11:30 14.00025 100.65383 1617 ft 152 kts 208°
2026-05-07 11:30 13.99037 100.64824 1411 ft 157 kts 208°
2026-05-07 11:30 13.98032 100.64257 1194 ft 155 kts 208°
2026-05-07 11:30 13.97045 100.63703 986 ft 155 kts 208°
2026-05-07 11:31 13.96068 100.63154 776 ft 157 kts 207°
2026-05-07 11:31 13.95059 100.62601 559 ft 157 kts 206°
2026-05-07 11:31 13.94077 100.62045 372 ft 155 kts 207°
2026-05-07 11:31 13.93104 100.61500 155 ft 154 kts 207°
2026-05-07 11:32 13.91451 100.60575 24 ft 89 kts 208°
2026-05-07 11:32 13.91139 100.60341 21 ft 25 kts 232°
2026-05-07 11:32 13.91107 100.60221 21 ft 13 kts 316°
2026-05-07 11:33 13.91174 100.60230 21 ft 8 kts 31°
2026-05-07 11:33 13.91214 100.60253 23 ft 4 kts 29°
2026-05-07 11:33 13.91255 100.60277 24 ft 13 kts 29°
2026-05-07 11:33 13.91346 100.60329 26 ft 13 kts 29°
2026-05-07 11:34 13.91410 100.60322 28 ft 6 kts 306°
2026-05-07 11:34 13.91437 100.60275 30 ft 9 kts 298°
2026-05-07 11:34 13.91456 100.60231 32 ft 3 kts 271°
2026-05-07 11:34 13.91432 100.60205 32 ft 10 kts 207°
2026-05-07 11:35 13.91395 100.60185 31 ft 0 kts 208°